Printer-friendly version

IAU Minor Planet Center

Minor Planet Center

MPEC 2006-F23 : 2006 DZ169

The following Minor Planet Electronic Circular may be linked-to from your own Web pages, but must not otherwise be redistributed electronically.


Read MPEC 2006-F22 Read MPEC 2006-F24


M.P.E.C. 2006-F23                                Issued 2006 Mar. 23, 22:16 UT

     The Minor Planet Electronic Circulars contain information on unusual
         minor planets and routine data on comets.  They are published
   on behalf of Commission 20 of the International Astronomical Union by the
          Minor Planet Center, Smithsonian Astrophysical Observatory,
                          Cambridge, MA 02138, U.S.A.

                  Supported in part by the Brinson Foundation
                  Supported in part by the TABASGO Foundation
             Prepared using the Tamkin Foundation Computer Network

                              MPC@CFA.HARVARD.EDU
          URL http://cfa-www.harvard.edu/iau/mpc.html  ISSN 1523-6714

                                  2006 DZ169

Additional Observations:
     K06DG9Z  C2006 02 22.40041 12 21 32.62 +02 59 07.2          19.7 R EF023699
     K06DG9Z  C2006 02 22.41869 12 21 31.94 +02 59 10.5                 EF023699
     K06DG9Z  C2006 02 22.43694 12 21 31.17 +02 59 13.8                 EF023699
     K06DG9Z  C2006 02 22.45523 12 21 30.26 +02 59 16.6                 EF023699
     K06DG9Z  C2006 03 23.27221 11 49 02.49 +05 12 59.8          18.7 V EF023703
     K06DG9Z  C2006 03 23.28032 11 49 01.92 +05 13 02.4          19.2 V EF023703
     K06DG9Z  C2006 03 23.28840 11 49 01.09 +05 13 03.9          19.3 V EF023703
     K06DG9Z  C2006 03 23.37757 11 48 53.13 +05 13 30.6          18.7 V EF023703
     K06DG9Z  C2006 03 23.38707 11 48 52.27 +05 13 33.1          18.6 V EF023703
     K06DG9Z  C2006 03 23.39660 11 48 51.48 +05 13 36.0          18.8 V EF023703
     K06DG9Z  C2006 03 23.40611 11 48 50.58 +05 13 39.8          19.0 V EF023703
     K06DG9Z  C2006 03 23.90396 11 48 08.06 +05 16 06.8                 EF023246
     K06DG9Z  C2006 03 23.90497 11 48 07.99 +05 16 07.7                 EF023246
     K06DG9Z  C2006 03 23.90664 11 48 07.78 +05 16 08.5                 EF023246
     K06DG9Z  C2006 03 23.90990 11 48 07.54 +05 16 08.5                 EF023246
     K06DG9Z  C2006 03 23.91269 11 48 07.23 +05 16 09.8                 EF023246

Observer details:
246 Klet Observatory-KLENOT.  Observer M. Tichy.  1.06-m KLENOT Telescope
    + CCD.
699 Lowell Observatory-LONEOS.  Observer B. A. Skiff.  0.59-m LONEOS Schmidt
    + CCD.
703 Catalina Sky Survey.  Observer A. R. Gibbs.  Measurers E. C. Beshore,
    E. J. Christensen, G. J. Garradd, A. R. Gibbs, A. D. Grauer, R. E. Hill,
    R. A. Kowalski, S. M. Larson, R. H. McNaught.  0.68-m Schmidt + CCD.

Orbital elements:
2006 DZ169 = 2006 EZ1                                    Earth MOID = 0.2270 AU
Epoch 2006 Mar. 6.0 TT = JDT 2453800.5                  MPC
M 289.87486              (2000.0)            P               Q
n   0.34055770     Peri.  275.33387     +0.34880513     +0.93671131
a   2.0308394      Node    15.18613     -0.80789170     +0.31681236
e   0.4067513      Incl.    6.60139     -0.47502209     +0.14900282
P   2.89           H   17.1           G   0.15           U   7
Residuals in seconds of arc
060222 699  0.6-  0.2+    060304 408  0.2-  0.7+    060323 703  0.5-  0.8-
060222 699  0.9+  0.1+    060304 408  0.1-  0.7+    060323 703  0.4+  0.7-
060222 699  0.9+  0.1-    060306 691  0.4+  0.3-    060323 703  0.5-  0.2+
060222 699  1.1-  0.7-    060306 691  0.2+  0.4-    060323 246  0.5+  0.1+
060227 691  0.1-  0.1-    060306 691  0.4+  0.0     060323 246  0.8+  0.7+
060227 691  0.0   0.0     060323 703  1.0-  0.4+    060323 246  0.1-  1.0+
060227 691  0.2-  0.2+    060323 703  1.3+  0.5+    060323 246  0.6+  0.0
060303 408  0.1+  0.1-    060323 703  0.3-  0.4-    060323 246  0.3-  0.5+
060303 408  0.5-  0.0     060323 703  0.3-  0.4-

Ephemeris:
2006 DZ169               a,e,i = 2.03, 0.41, 7                   q = 1.2048
Date    TT    R. A. (2000) Decl.     Delta      r     Elong.  Phase     V
2006 03 16    11 59.20   +04 35.5    1.039    2.031   175.0     2.4    19.0
2006 03 26    11 45.10   +05 26.5    0.994    1.982   168.8     5.6    19.0
2006 04 05    11 30.93   +06 07.8    0.974    1.931   155.8    12.3    19.2
2006 04 15    11 18.65   +06 30.5    0.978    1.879   143.1    18.7    19.4
2006 04 25    11 09.76   +06 29.8    0.999    1.827   131.3    24.4    19.5
2006 05 05    11 05.07   +06 04.3    1.032    1.773   120.7    29.3    19.7
2006 05 15    11 04.76   +05 15.0    1.072    1.720   111.3    33.2    19.8
2006 05 25    11 08.52   +04 04.2    1.115    1.666   103.0    36.3    19.9
2006 06 04    11 16.00   +02 33.6    1.157    1.612    95.7    38.8    20.0
2006 06 14    11 26.74   +00 45.1    1.195    1.560    89.3    40.6    20.1
2006 06 24    11 40.38   -01 19.9    1.230    1.508    83.8    42.1    20.1
2006 07 04    11 56.66   -03 40.0    1.258    1.457    78.9    43.2    20.1
2006 07 14    12 15.43   -06 13.7    1.281    1.409    74.7    44.1    20.1
2006 07 24    12 36.61   -08 58.8    1.297    1.364    71.1    44.8    20.1
2006 08 03    13 00.27   -11 52.9    1.309    1.323    68.1    45.3    20.0
2006 08 13    13 26.49   -14 52.2    1.316    1.287    65.6    45.8    20.0
2006 08 23    13 55.47   -17 52.0    1.320    1.256    63.6    46.1    20.0
2006 09 02    14 27.39   -20 45.9    1.323    1.232    62.1    46.3    19.9
2006 09 12    15 02.36   -23 25.7    1.327    1.215    61.0    46.4    19.9
2006 09 22    15 40.38   -25 42.2    1.334    1.206    60.2    46.2    19.9

Timothy B. Spahr             (C) Copyright 2006 MPC           M.P.E.C. 2006-F23

Read MPEC 2006-F22 Read MPEC 2006-F24


Our Web policy. Index to the CBAT/MPC/ICQ pages.


Valid HTML 4.01!